Chiang Mai, Thailand

7:37 AM +07 on May 25, 2017 (GMT +0700)
Chiang Mai International

Weather History for VTCC - September, 2013

Change the Weather History Date:

Tuesday, September 10, 2013

  Actual Average Record
Temperature  
Mean Temperature 82 °F -  
Max Temperature 90 °F 85 °F 94 °F (2014)
Min Temperature 75 °F 71 °F 71 °F (2004)
Cooling Degree Days 18    
Growing Degree Days 32 (Base 50)    
Moisture  
Dew Point 71 °F    
Average Humidity 74    
Maximum Humidity 97    
Minimum Humidity 49    
Precipitation  
Precipitation 0.16 in 0.25 in - ()
Sea Level Pressure  
Sea Level Pressure 29.85 in    
Wind  
Wind Speed 3 mph ()    
Max Wind Speed 8 mph    
Max Gust Speed -    
Visibility 6.1 miles    
Events Rain    
Averages and records for this station are not official NWS values.
T = Trace of Precipitation, MM = Missing Value Source: Averaged Metar Reports

Daily Weather History Graph

Daily Weather History Graph

Search for Another Location

Airport or City:

Trip Planner

Search our weather history database for the weather conditions in past years. The results will help you decide how hot, cold, wet, or windy it might be!

Date:

Astronomy

Sep. 10, 2013 Rise Set
Actual Time 6:10 AM +07 6:31 PM +07
Civil Twilight 5:48 AM +07 6:53 PM +07
Nautical Twilight 5:23 AM +07 7:18 PM +07
Astronomical Twilight 4:57 AM +07 7:44 PM +07
Moon 10:17 AM +07 (9/10) 9:56 PM +07 (9/10)
Length of Visible Light 13h 04m
Length of Day
12h 20m
Waxing Crescent, 23% of the Moon is Illuminated
Sep 10
Waxing Crescent
Sep 13
First Quarter
Sep 19
Full
Sep 27
Last Quarter
Oct 5
New

Hourly Weather History & Observations

Time (+07) Temp. Heat Index Dew Point Humidity Pressure Visibility Wind Dir Wind Speed Gust Speed Precip Events Conditions
12:00 AM 75.2 °F - 71.6 °F 89% 29.92 in 5.0 mi NNE 4.6 mph - N/A Rain Light Rain
12:30 AM 77.0 °F - 73.4 °F 89% 29.92 in 6.2 mi North 6.9 mph - N/A   Mostly Cloudy
1:00 AM 77 °F - 75 °F 90% 29.86 in 6 mi Calm Calm - - Rain Light Rain
1:00 AM 77.0 °F - 73.4 °F 89% 29.92 in 6.2 mi NE 2.3 mph - N/A   Mostly Cloudy
1:30 AM 77.0 °F - 73.4 °F 89% 29.89 in 6.2 mi Calm Calm - N/A   Mostly Cloudy
2:00 AM 77.0 °F - 73.4 °F 89% 29.89 in 6.2 mi Calm Calm - N/A   Mostly Cloudy
2:30 AM 77.0 °F - 73.4 °F 89% 29.89 in 6.2 mi West 2.3 mph - N/A   Mostly Cloudy
3:00 AM 75.2 °F - 71.6 °F 89% 29.89 in 6.2 mi Calm Calm - N/A   Mostly Cloudy
3:30 AM 75.2 °F - 71.6 °F 89% 29.89 in 6.2 mi Calm Calm - N/A   Mostly Cloudy
4:00 AM 75.2 °F - 71.6 °F 89% 29.89 in 6.2 mi West 2.3 mph - N/A   Mostly Cloudy
4:30 AM 75.2 °F - 71.6 °F 89% 29.89 in 6.2 mi Calm Calm - N/A   Mostly Cloudy
5:00 AM 75.2 °F - 71.6 °F 89% 29.89 in 6.2 mi Calm Calm - N/A   Mostly Cloudy
5:30 AM 75.2 °F - 71.6 °F 89% 29.89 in 6.2 mi Calm Calm - N/A   Mostly Cloudy
6:00 AM 75.2 °F - 73.4 °F 94% 29.89 in 5.0 mi SSE 2.3 mph - N/A Rain Light Rain
6:30 AM 75.2 °F - 73.4 °F 94% 29.89 in 4.3 mi WNW 3.5 mph - N/A Rain Light Rain
7:00 AM 76 °F - 75 °F 97% 29.86 in 5 mi Calm Calm - - Rain Light Rain
7:00 AM 75.2 °F - 73.4 °F 94% 29.92 in 6.2 mi NW 1.2 mph - N/A   Mostly Cloudy
7:30 AM 75.2 °F - 73.4 °F 94% 29.92 in 6.2 mi Calm Calm - N/A   Mostly Cloudy
8:00 AM 77.0 °F - 71.6 °F 83% 29.92 in 6.2 mi North 3.5 mph - N/A   Mostly Cloudy
8:30 AM 80.6 °F 84.6 °F 71.6 °F 74% 29.92 in 6.2 mi NNW 2.3 mph - N/A   Mostly Cloudy
9:00 AM 82.4 °F 87.2 °F 71.6 °F 70% 29.92 in 6.2 mi Calm Calm - N/A   Mostly Cloudy
9:30 AM 80.6 °F 84.6 °F 71.6 °F 74% 29.92 in 6.2 mi Calm Calm - N/A   Mostly Cloudy
10:00 AM 82.4 °F 87.2 °F 71.6 °F 70% 29.92 in 6.2 mi SSE 2.3 mph - N/A   Scattered Clouds
10:30 AM 82.4 °F 87.2 °F 71.6 °F 70% 29.89 in 6.2 mi West 2.3 mph - N/A   Scattered Clouds
11:00 AM 84.2 °F 88.4 °F 69.8 °F 62% 29.89 in 6.2 mi SSE 3.5 mph - N/A   Scattered Clouds
11:30 AM 86.0 °F 90.4 °F 69.8 °F 58% 29.89 in 6.2 mi West 3.5 mph - N/A   Scattered Clouds
12:00 PM 86.0 °F 90.4 °F 69.8 °F 58% 29.86 in 6.2 mi WSW 3.5 mph - N/A   Scattered Clouds
12:30 PM 87.8 °F 91.4 °F 68.0 °F 52% 29.86 in 6.2 mi SSW 4.6 mph - N/A   Scattered Clouds
1:00 PM 87.8 °F 91.4 °F 68.0 °F 52% 29.83 in 6.2 mi SSE 5.8 mph - N/A   Scattered Clouds
1:30 PM 86.0 °F 90.4 °F 69.8 °F 58% 29.83 in 6.2 mi SE 8.1 mph - N/A   Mostly Cloudy
2:00 PM 84.2 °F 88.4 °F 69.8 °F 62% 29.80 in 6.2 mi East 4.6 mph - N/A   Mostly Cloudy
2:30 PM 87.8 °F 92.6 °F 69.8 °F 55% 29.80 in 6.2 mi WNW 2.3 mph - N/A   Mostly Cloudy
3:00 PM 87.8 °F 92.6 °F 69.8 °F 55% 29.77 in 6.2 mi NNW 4.6 mph - N/A   Scattered Clouds
3:30 PM 89.6 °F 93.4 °F 68.0 °F 49% 29.77 in 6.2 mi South 4.6 mph - N/A   Scattered Clouds
4:00 PM 89.6 °F 93.4 °F 68.0 °F 49% 29.74 in 6.2 mi SSW 3.5 mph - N/A   Scattered Clouds
4:30 PM 87.8 °F 92.6 °F 69.8 °F 55% 29.74 in 6.2 mi East 5.8 mph - N/A   Scattered Clouds
5:00 PM 87.8 °F 91.4 °F 68.0 °F 52% 29.74 in 6.2 mi East 6.9 mph - N/A   Scattered Clouds
5:30 PM 87.8 °F 91.4 °F 68.0 °F 52% 29.74 in 6.2 mi East 5.8 mph - N/A   Scattered Clouds
6:00 PM 86.0 °F 90.4 °F 69.8 °F 58% 29.74 in 6.2 mi East 5.8 mph - N/A   Scattered Clouds
6:30 PM 86.0 °F 90.4 °F 69.8 °F 58% 29.77 in 6.2 mi NE 3.5 mph - N/A   Scattered Clouds
7:00 PM 86 °F - 74 °F 61% 29.70 in 7 mi Calm Calm - -   Partly Cloudy
7:00 PM 82.4 °F 87.2 °F 71.6 °F 70% 29.77 in 6.2 mi North 5.8 mph - N/A   Scattered Clouds
7:30 PM 82.4 °F 87.2 °F 71.6 °F 70% 29.77 in 6.2 mi NNW 4.6 mph - N/A   Scattered Clouds
8:00 PM 82.4 °F 87.2 °F 71.6 °F 70% 29.80 in 6.2 mi North 4.6 mph - N/A   Scattered Clouds
8:30 PM 82.4 °F 87.2 °F 71.6 °F 70% 29.83 in 6.2 mi North 4.6 mph - N/A   Scattered Clouds
9:00 PM 82.4 °F 87.2 °F 71.6 °F 70% 29.83 in 6.2 mi Calm Calm - N/A   Scattered Clouds
9:30 PM 80.6 °F 84.6 °F 71.6 °F 74% 29.86 in 6.2 mi WSW 4.6 mph - N/A   Scattered Clouds
10:00 PM 78.8 °F - 71.6 °F 78% 29.86 in 6.2 mi NW 2.3 mph - N/A   Scattered Clouds
10:30 PM 78.8 °F - 73.4 °F 83% 29.86 in 6.2 mi North 1.2 mph - N/A   Scattered Clouds
11:00 PM 78.8 °F - 73.4 °F 83% 29.86 in 6.2 mi WNW 3.5 mph - N/A   Scattered Clouds
11:30 PM 78.8 °F - 73.4 °F 83% 29.86 in 6.2 mi West 3.5 mph - N/A   Scattered Clouds